Wind_Speed
17 14 15 22 19 19 21 24 24 22 20 12 18 21 22 17 21 25 25 20 20 21 20 27 30 28 27 32 34 33 35 29 31 27 24 21 20 18 17 15 13 11 12 11
17 20 23 22 22 22 22 25 26 25 21 20 24 23 21 19 22 22 21 18 18 18 18 19 25 30 30 34 33 32 36 33 30 26 23 21 19 20 17 15 13 12 11 11
20 22 21 18 21 22 21 24 24 25 24 20 21 26 26 21 25 25 26 23 20 21 21 20 21 27 30 32 35 35 34 33 30 24 22 19 19 18 17 16 14 12 14 14
18 21 18 20 24 22 25 21 24 17 20 17 18 21 25 26 27 27 28 26 25 25 21 21 22 24 31 32 35 35 33 36 27 26 25 25 24 22 17 19 17 16 16 14
25 25 24 21 21 20 17 14 16 19 20 19 29 14 25 26 28 28 29 29 29 26 23 23 24 26 31 35 36 37 35 36 30 24 24 25 20 24 23 20 20 16 14 12
27 26 23 26 24 23 13 15 17 17 14 15 27 21 22 20 24 20 23 30 30 29 27 25 22 32 33 37 39 36 35 33 33 30 27 22 32 29 25 20 16 14 13 11
16 23 23 23 20 19 16 10 6 7 10 19 15 17 23 17 28 22 19 24 29 29 27 26 26 25 31 41 44 41 38 36 33 30 27 27 27 26 23 22 20 16 15 13
11 12 5 9 14 11 11 12 6 8 14 18 21 23 21 24 24 17 17 22 25 30 27 28 30 28 32 43 45 44 41 38 34 32 29 26 26 23 21 19 19 18 16 16
7 8 5 15 18 13 2 10 17 16 20 17 17 5 22 17 15 20 19 19 23 30 28 29 32 20 42 42 40 41 43 38 37 34 31 30 25 25 21 23 20 16 16 15
3 12 16 19 9 17 12 2 4 4 6 15 10 20 14 19 19 17 16 20 24 29 29 29 23 20 42 43 40 40 40 38 36 34 32 28 28 26 26 23 19 19 18 15
6 6 14 15 10 16 5 4 9 12 11 10 15 12 11 15 17 13 17 23 26 27 29 26 11 18 26 40 40 39 38 38 36 31 35 34 30 26 25 23 23 20 18 15
6 4 8 22 23 20 16 19 18 10 13 14 16 19 11 16 17 18 15 23 21 26 28 17 22 19 7 38 35 35 36 32 35 35 34 34 31 28 26 25 23 19 18 15
2 4 7 11 2 10 4 11 20 17 15 17 12 7 6 13 20 19 21 27 25 24 25 24 29 24 24 27 32 32 35 36 36 38 36 33 30 28 27 25 22 19 17 14
7 5 12 13 19 12 4 13 21 16 11 15 16 19 15 20 16 18 22 27 29 17 20 19 17 13 21 28 33 36 35 38 40 36 35 33 31 30 27 24 21 19 16 14
2 7 15 19 23 24 24 19 19 14 17 16 16 17 18 12 13 21 24 26 21 17 20 20 16 16 18 26 33 37 37 38 38 37 35 32 31 29 26 24 22 18 15 14
3 5 15 23 19 16 11 5 13 13 14 13 15 25 21 13 14 24 21 26 22 18 17 19 19 20 19 27 33 37 37 36 37 35 34 32 31 29 26 24 22 19 17 15
4 4 5 8 11 10 3 5 12 13 10 3 8 19 22 11 22 21 26 28 24 20 17 18 19 19 22 30 38 36 37 38 37 35 34 32 31 29 26 23 21 19 17 16
6 10 6 10 17 3 7 10 13 10 15 8 14 18 14 19 6 17 22 25 22 20 19 16 18 20 29 36 38 38 38 37 36 34 33 31 29 28 25 23 21 19 17 15
9 6 5 6 13 1 9 11 8 5 7 9 17 22 5 14 27 17 16 20 19 18 17 18 28 33 37 38 39 40 38 36 35 32 31 29 28 27 25 23 21 19 18 16
15 9 6 7 8 4 9 22 23 1 3 24 25 21 14 25 15 8 18 18 18 19 24 26 35 38 38 37 39 38 35 33 31 31 30 29 28 26 25 22 20 18 17 15
10 8 8 10 4 4 17 25 25 5 8 23 18 13 18 13 9 15 22 19 18 21 28 35 35 33 35 36 37 34 33 31 31 32 30 29 27 26 24 22 19 17 15 13
5 7 6 7 5 5 24 14 9 12 16 14 13 9 22 17 14 21 22 19 20 20 26 33 33 32 33 34 35 32 30 32 33 31 30 30 26 24 22 20 18 15 13 11
2 4 6 5 5 10 15 7 14 13 11 11 12 8 19 16 16 20 19 21 19 19 26 31 33 33 31 32 32 31 30 34 34 31 29 27 25 23 20 18 16 13 9 9
1 4 4 9 3 15 9 13 17 11 11 12 12 10 13 16 15 18 18 18 18 22 26 30 31 31 30 31 32 32 31 31 32 31 29 26 24 22 19 16 13 13 11 9
4 10 9 7 6 13 4 14 15 9 9 13 15 13 12 18 14 17 17 19 19 26 29 29 28 29 31 31 30 30 30 30 29 28 26 25 23 22 20 21 17 17 21 16
4 4 4 3 9 4 10 12 12 9 10 12 16 15 15 17 17 15 16 21 25 27 29 28 28 30 30 30 29 27 26 27 27 26 23 22 22 21 21 22 25 25 22 19
Wind_Direction
257 234 252 260 267 262 273 276 278 280 287 258 262 273 277 270 242 269 226 214 233 232 232 221 213 211 199 163 165 168 180 186 174 172 176 173 169 182 179 180 161 171 185 184
270 257 245 252 262 271 269 267 267 273 261 265 264 258 254 257 266 255 252 237 226 228 232 226 212 208 181 167 164 169 183 176 170 170 177 176 172 173 170 165 164 175 171 170
274 268 273 260 249 260 268 263 265 272 272 262 276 278 259 246 247 242 251 246 241 236 227 217 209 199 166 167 167 173 180 164 169 171 181 161 160 153 159 144 165 164 164 160
286 286 280 274 264 259 256 248 261 295 285 269 260 261 259 250 234 232 232 231 233 238 230 221 205 190 167 174 175 173 168 159 168 176 163 165 161 165 149 155 148 148 157 156
274 282 284 269 264 270 291 284 275 258 257 271 260 260 256 250 235 223 222 221 224 224 226 226 208 177 173 177 175 168 154 156 166 168 163 164 156 153 140 150 157 155 146 141
270 266 255 253 260 260 252 250 264 273 266 252 248 245 257 247 257 229 227 212 215 216 220 218 218 171 176 184 169 157 161 160 160 159 162 158 149 149 145 158 150 132 131 130
296 279 267 229 247 248 239 257 235 237 221 242 249 228 241 244 244 247 230 222 207 210 215 208 210 173 178 182 166 162 161 152 159 148 156 156 152 147 150 153 132 141 141 131
287 298 33 19 264 291 271 218 246 265 245 251 242 233 233 244 253 237 252 227 212 206 209 206 205 182 179 169 162 156 152 154 152 150 156 149 143 145 141 135 144 140 125 128
312 265 322 303 285 250 355 228 252 258 263 273 269 229 285 262 263 223 238 262 224 199 210 206 208 162 174 163 153 151 152 150 145 152 147 146 147 138 137 139 134 125 127 132
309 288 280 288 290 258 200 225 233 201 247 255 252 259 255 242 221 233 225 232 244 203 204 208 202 152 201 148 144 150 147 143 147 143 143 141 133 130 133 133 127 134 132 133
277 224 283 289 243 238 178 217 233 267 252 269 275 261 36 340 325 230 217 227 230 196 202 207 141 133 170 139 141 140 144 140 136 134 126 124 128 128 128 129 131 129 128 124
252 269 275 276 273 270 226 231 227 245 256 258 260 261 47 291 313 308 222 220 225 195 195 173 110 114 220 129 131 138 134 120 124 124 124 125 124 125 127 126 126 126 120 114
202 241 287 296 209 28 276 248 244 239 259 258 260 269 348 306 290 294 298 207 226 200 190 128 120 150 148 136 133 117 116 118 121 121 120 122 121 124 123 125 123 118 113 111
240 234 245 274 297 311 237 246 256 231 244 257 258 273 272 269 270 280 284 209 217 137 122 125 118 113 115 119 114 111 114 119 121 120 117 117 120 119 118 120 119 116 115 111
243 266 269 265 270 270 270 244 254 233 242 244 261 266 262 274 278 267 262 210 122 131 126 119 106 115 114 112 111 112 115 119 123 119 118 117 120 120 121 119 116 114 110 106
230 275 299 288 278 262 225 292 352 312 299 287 265 266 272 282 257 261 253 143 142 119 119 118 127 121 116 112 114 114 117 118 118 121 120 122 121 120 119 117 115 112 108 105
272 294 293 277 325 289 122 27 342 294 268 285 244 270 309 300 262 218 150 135 122 119 116 124 122 119 115 117 115 113 117 119 119 120 121 121 121 119 118 118 114 111 107 103
305 311 268 287 314 337 140 53 341 295 285 256 281 284 283 241 247 124 118 121 116 119 123 121 115 111 112 107 109 113 114 116 119 120 119 120 121 119 118 114 111 109 107 104
290 282 286 298 322 145 142 355 318 315 285 336 343 338 140 131 84 73 103 101 108 113 118 114 117 116 112 113 115 111 110 113 117 120 122 123 124 121 119 116 115 113 110 105
330 286 260 310 314 332 357 337 322 117 238 357 337 323 188 116 88 83 85 90 99 106 115 118 115 112 113 117 116 115 119 121 123 128 126 127 122 120 117 117 113 111 107 104
337 345 322 319 305 95 359 339 316 338 336 322 324 336 72 78 88 113 95 92 100 106 111 110 109 111 115 119 119 118 121 121 122 123 123 116 117 116 115 113 108 104 98 102
318 324 339 328 316 349 2 342 14 301 302 319 353 39 88 86 99 105 103 102 101 104 103 105 106 106 110 114 115 114 114 118 115 114 114 115 118 115 112 108 108 107 109 107
328 4 311 321 331 348 331 322 312 337 338 17 9 32 97 96 95 102 104 105 103 104 101 100 102 102 103 107 110 111 118 116 115 119 119 116 115 113 113 111 110 105 102 103
89 6 277 327 54 343 326 341 345 347 17 43 35 40 89 92 99 97 99 101 103 104 105 108 107 106 109 116 119 120 123 123 121 115 114 117 116 113 112 109 106 90 86 104
1 309 326 274 349 328 347 344 333 345 55 74 54 46 65 81 77 98 100 98 98 98 100 101 103 105 110 116 116 119 122 121 119 118 118 118 117 106 89 76 83 82 63 73
2 335 330 317 330 294 295 323 323 21 84 83 81 65 57 71 70 73 92 96 102 101 103 105 108 111 113 115 116 117 119 119 121 123 124 122 121 119 110 103 90 85 86 88
Height
737 749 751 741 723 721 720 720 714 705 696 708 706 698 693 683 682 675 667 670 673 670 670 673 680 687 689 699 710 720 728 736 743 749 752 755 760 766 770 774 778 783 787 790
734 732 722 722 721 722 723 723 715 703 696 702 696 693 690 686 683 676 670 667 665 667 668 667 671 677 682 695 707 716 724 731 739 746 750 752 757 762 767 773 778 783 786 789
734 724 712 718 721 721 718 721 716 711 698 691 703 699 683 677 677 675 670 666 664 665 664 663 665 668 677 692 701 711 718 727 736 742 746 750 755 760 766 773 779 782 785 787
726 712 714 714 712 712 715 708 708 712 713 709 692 704 680 666 666 666 667 666 666 661 657 656 659 661 673 688 698 705 714 721 732 738 741 746 750 756 763 772 778 782 784 787
726 723 720 717 711 706 715 701 710 710 709 711 694 702 665 657 654 650 651 654 655 654 652 651 649 653 672 683 695 700 709 715 725 735 740 747 749 754 763 772 778 781 785 788
719 706 706 702 698 697 705 714 708 705 712 718 686 691 664 655 643 635 633 635 641 645 645 645 642 647 667 678 690 698 708 710 723 727 738 745 746 756 760 772 778 781 787 792
705 693 679 683 695 693 702 720 722 721 718 683 660 673 650 632 627 622 622 623 626 633 636 637 636 639 653 666 678 689 698 708 718 724 739 745 748 753 762 771 775 782 787 792
719 706 693 694 705 704 713 724 722 710 689 666 642 653 636 627 622 614 615 612 614 621 625 620 622 630 642 657 667 673 686 699 710 724 737 742 748 756 764 769 776 783 786 793
734 711 698 699 701 707 722 722 706 713 692 681 651 645 623 614 615 617 620 614 608 613 608 612 614 632 648 658 668 675 682 692 708 721 729 739 747 754 763 770 777 782 788 795
746 734 707 691 692 692 712 709 715 712 697 684 663 648 640 621 619 618 618 620 607 596 604 601 614 639 646 650 665 679 687 691 706 718 729 736 746 756 764 771 778 786 792 797
753 755 710 699 695 689 709 713 709 690 682 675 658 638 632 635 625 610 614 612 596 591 596 593 619 633 643 650 665 680 685 689 707 721 729 736 748 758 766 774 782 788 794 798
744 745 719 692 670 663 676 684 686 686 671 652 651 642 642 637 633 623 607 601 589 587 589 599 626 636 623 627 665 682 684 689 708 722 731 740 750 760 769 778 785 792 796 800
749 737 713 675 665 693 692 685 675 670 672 668 672 653 636 637 635 628 617 601 596 585 592 615 632 658 659 658 669 679 680 697 715 726 736 743 753 764 773 780 787 793 798 803
738 736 721 695 672 680 690 687 665 658 670 659 651 644 642 634 632 629 619 598 595 597 624 630 645 626 647 664 672 676 689 708 719 731 739 747 758 767 776 783 790 796 802 806
739 724 705 689 686 681 672 667 650 648 647 655 642 637 629 630 634 630 615 593 611 618 633 641 650 659 665 670 675 686 702 714 724 732 741 752 763 771 780 787 794 801 806 810
731 717 702 677 655 650 652 653 660 650 650 649 652 638 627 624 633 628 611 606 621 623 637 648 661 666 668 673 682 694 709 717 725 736 747 759 769 777 785 792 798 805 810 813
730 723 709 673 652 656 668 685 690 680 676 684 660 635 634 642 623 606 600 611 622 631 639 653 662 667 675 685 686 697 710 719 730 744 756 766 774 782 789 797 802 809 813 816
726 716 701 674 649 657 676 698 701 691 681 680 667 653 629 631 609 605 610 618 630 641 650 661 662 671 679 682 694 704 714 727 741 752 762 772 780 786 794 800 806 812 816 820
714 715 701 681 660 650 671 699 700 695 679 672 663 644 625 620 615 632 631 631 641 651 661 667 677 682 688 698 708 716 729 739 749 761 768 777 785 791 799 806 811 815 819 823
700 693 696 682 671 661 714 703 689 688 657 670 667 644 608 602 633 648 643 649 656 664 672 677 683 688 697 710 718 726 739 749 758 768 775 783 789 797 804 811 814 818 821 825
713 706 695 680 673 686 717 709 677 657 680 682 673 638 626 634 650 656 656 666 671 676 679 682 688 696 707 717 726 736 747 755 765 773 780 788 796 802 809 813 817 820 824 829
735 729 705 695 679 684 719 709 711 708 704 687 673 661 655 661 664 664 669 676 683 687 689 692 697 709 720 728 736 745 755 764 772 781 788 796 802 807 813 817 821 825 829 831
728 743 738 737 727 735 733 738 729 709 698 691 682 681 671 673 676 676 680 685 692 695 700 706 712 722 733 741 748 756 765 772 781 789 795 801 807 812 817 821 824 828 830 830
744 743 743 742 737 740 737 734 732 718 704 702 697 692 686 686 689 689 693 696 701 708 713 721 728 735 745 755 762 768 774 781 787 794 800 806 811 816 821 824 826 828 831 832
753 749 747 736 737 737 731 738 736 723 719 714 711 709 705 701 702 701 704 708 714 720 727 734 741 748 755 763 769 776 782 786 792 798 805 809 814 819 824 827 832 837 838 836
762 760 751 742 753 754 746 744 737 729 726 724 720 722 722 716 717 716 717 722 726 732 740 747 753 758 764 771 777 783 788 792 797 802 808 812 817 823 829 834 839 842 844 845